Погода в Молодецком

Украина / Черкасская область     48°52′42″N   30°23′31″E
темп.,
°C
ветер,
м/с
пор.,
м/с
влажн.,
%
обл.,
%
осадки,
мм/ч
давл.,
гПа
погр.,
м
8 декабря, ср
ср823:00+3ссв4794100 2.2 1009230
02:00+2ссв5994100 2.6 1008276
05:00+2ссв61194100 2.2 1007323
08:00+2ссв71294100 8.1 1007344
11:00+2ссв61194100 0.3 1008366
14:00+3ссв51097100 1.6 1006377
17:00+3ссв51097100 1.9 1007360
20:00+2с5996100 3.8 1008291
9 декабря, чт
чт923:00+2с4897100 0.8 1009260
02:00+3с4797100 1.1 1010230
05:00+3с3697100 0.1 1010218
08:00+3с3597100 0.1 1012185
11:00+3ссв2395100 0.0 1013156
14:00+4ссв2394100 0.0 1014145
17:00+4всв359671 0.0 1015162
20:00+5вюв2496100 0.0 1016142
10 декабря, пт
пт1023:00+5юв3797100 0.0 1016223
02:00+6юв4998100 0.0 1016322
05:00+5юв5119398 0.0 1016332
08:00+4юв61494100 0.0 1016350
11:00+7юв81791100 0.0 1015653
14:00+8юв9178374 0.0 1013687
17:00+8ююв91880100 0.0 1013707
20:00+8ююв92076100 0.0 1014678
11 декабря, сб
сб1123:00+8юв92171100 0.0 1014657
02:00+8юв71782100 0.1 1014605
05:00+7юв81690100 0.1 1013591
08:00+7юв91689100 0.1 1013684
11:00+8юв91583100 0.1 1013794
14:00+8ююв81389100 0.4 10131133
17:00+7юв399388 0.3 1017197
20:00+7юв51093100 0.3 1018353
12 декабря, вс
вс1223:00+6юв51195100 0.0 1020421
02:00+6юв5109699 0.0 1021423
05:00+5вюв51194100 0.0 1021351
08:00+3в51192100 0.0 1022341
11:00+5в61080100 0.0 1021389
14:00+5в61075100 0.0 1020463
17:00+4в61275100 0.0 1020457
20:00+4в61480100 0.2 1019494